Regional Weather Roundup
Issued by NWS

Home | Current Version | Previous Version | Text Only | Print | Product List | Glossary Off
Versions: 1 2 3 4 5 6 7 8 9 10 11 12 13 14 15 16 17 18 19 20 21 22 23 24 25 26 27 28 29 30 31 32 33 34 35 36 37 38 39 40 41 42 43 44 45 46 47 48 49 50

000
ASUS43 KFSD 170402
RWRSD

WEATHER ROUNDUP FOR SOUTH DAKOTA
NATIONAL WEATHER SERVICE SIOUX FALLS SD
1100 PM CDT WED APR 16 2014

NOTE: "FAIR" INDICATES FEW OR NO CLOUDS BELOW 12,000 FEET WITH NO
SIGNIFICANT WEATHER AND/OR OBSTRUCTIONS TO VISIBILITY.


SDZ001>005-009-010-012>017-170500-
NORTHWEST AND NORTH CENTRAL SOUTH DAKOTA

CITY           SKY/WX    TMP DP  RH WIND       PRES   REMARKS
FAITH            N/A     31  23  72 E10       30.19R WCI  22
MOBRIDGE       MOCLDY    26  18  71 NE7       30.20R WCI  18
$$

SDZ012>016-024>037-041>051-057-063-072>074-170500-
SOUTHWEST AND SOUTH CENTRAL SOUTH DAKOTA

CITY           SKY/WX    TMP DP  RH WIND       PRES   REMARKS
RAPID CTY ARPT CLOUDY    31  24  75 SE3       30.18R
PIERRE         PTCLDY    26  20  77 N7        30.22R WCI  18
CUSTER         CLOUDY    26  24  92 SE6       30.07S FOG     WCI  19
ELLSWORTH AFB  CLOUDY    31  26  81 S6        30.17R WCI  26
PHILIP         CLOUDY    34  24  67 E8        30.21R WCI  27
PINE RIDGE     CLOUDY    31  27  85 E8        30.15R WCI  23
WINNER         CLOUDY    32  22  66 N14       30.21R WCI  22
$$

SDZ004>011-016>023-039-040-170500-
NORTHEAST SOUTH DAKOTA

CITY           SKY/WX    TMP DP  RH WIND       PRES   REMARKS
ABERDEEN       CLEAR     23  19  85 N8        30.21R WCI  14
WATERTOWN      MOCLDY    26  20  77 N16       30.13R WCI  14
SISSETON         N/A     21  19  92 N7        30.19R WCI  12
$$

SDZ017-020-022-023-036>040-048>070-170500-
SOUTHEAST SOUTH DAKOTA

CITY           SKY/WX    TMP DP  RH WIND       PRES   REMARKS
SIOUX FALLS    CLOUDY    29  25  85 N15G28    30.11R WCI  18
HURON          MOCLDY    31  23  72 N13       30.19R WCI  21
CHAMBERLAIN      N/A     29  22  75 N6        30.21R WCI  23
MITCHELL       CLOUDY    32  24  72 N14       30.18R WCI  22
YANKTON        CLOUDY    30  25  80 N17       30.16R WCI  18
$$

ABBREVIATIONS USED IN REMARKS
   TC - TEMPERATURE IN CELSIUS
  WCI - WIND CHILL INDEX
   HX - HEAT INDEX
  VSB - VISIBILITY




USA.gov is the U.S. government's official web portal to all federal, state and local government web resources and services.